Regional Weather Roundup
Issued by NWS

Home | Current Version | Previous Version | Text Only | Print | Product List | Glossary On
Versions: 1 2 3 4 5 6 7 8 9 10 11 12 13 14 15 16 17 18 19 20 21 22 23 24 25 26 27 28 29 30 31 32 33 34 35 36 37 38 39 40 41 42 43 44 45 46 47 48 49 50
000
ASUS45 KREV 281010
RWRNV
NEVADA REGIONAL WEATHER ROUNDUP
NATIONAL WEATHER SERVICE RENO NV
300 AM PDT THU MAY 28 2015

NOTE: "FAIR" INDICATES FEW OR NO CLOUDS BELOW 12,000 FEET WITH NO
SIGNIFICANT WEATHER AND/OR OBSTRUCTIONS TO VISIBILITY.

NVZ001-003-004-281100-
WESTERN NEVADA

CITY           SKY/WX    TMP DP  RH WIND       PRES   REMARKS
RENO           CLEAR     57  34  41 CALM      30.10R
CARSON CITY    FAIR      50  36  57 NW3       30.11R
MINDEN         FAIR      39  32  75 E7        30.11
SLIDE MTN        N/A     43  27  52 N10         N/A
PYRAMID LAKE     N/A     64 N/A N/A S6          N/A
FALLON         CLEAR     59  39  47 SE6       30.03S
LOVELOCK       CLEAR     58  43  57 NE10      30.02R
HAWTHORNE      CLEAR     63  39  42 CALM      30.06S
$$

NVZ002-CAZ072-073-281100-
NORTHERN AND CENTRAL SIERRA

CITY           SKY/WX    TMP DP  RH WIND       PRES   REMARKS
S. LAKE TAHOE  CLEAR     39  33  79 S6        30.18S
TRUCKEE        CLEAR     34  34 100 CALM      30.19S
SQUAW VLY 8000   N/A     43  19  39 CALM        N/A
SUSANVILLE     CLEAR     48  39  71 W5        30.08S
BLUE CANYON    CLEAR     57  29  34 CALM      30.14S
MAMMOTH LAKES  FAIR      37  21  52 NW3       30.21F
BRIDGEPORT     FAIR      36  24  62 CALM      30.18S
$$

NVZ030-031-036-281100-
NORTHERN NEVADA

CITY           SKY/WX    TMP DP  RH WIND       PRES   REMARKS
ELKO           PTCLDY    49  44  83 W3        30.10R
WINNEMUCCA     NOT AVBL
WENDOVER       CLOUDY    55  46  71 NE9       30.10R
$$

NVZ035-037-281100-
CENTRAL NEVADA

CITY           SKY/WX    TMP DP  RH WIND       PRES   REMARKS
ELY            CLEAR     42  40  92 SE10      30.16S
EUREKA           N/A     46  39  76 S8        30.11F
$$

NVZ013-014-281100-
SOUTH CENTRAL NEVADA

CITY           SKY/WX    TMP DP  RH WIND       PRES   REMARKS
TONOPAH        CLEAR     57  34  41 N14       30.09S
$$

NVZ017-020-022-281100-
SOUTHERN NEVADA

CITY           SKY/WX    TMP DP  RH WIND       PRES   REMARKS
LAS VEGAS      CLEAR     76  33  21 CALM      29.86R
N. LAS VEGAS   CLEAR     76  21  12 E10       29.89S
NELLIS AFB     CLEAR     75  39  26 NE13      29.88S
HENDERSON      CLEAR     76  35  22 S12       29.92F
MERCURY        CLEAR     70  30  22 N7        29.94S
$$


USA.gov is the U.S. government's official web portal to all federal, state and local government web resources and services.